Weather History for Hamilton, TX

Change the Weather History Date:

Wednesday, July 24, 2013

  Actual Average (KACT) Record (KACT)
Temperature  
Mean Temperature 86 °F 86 °F  
Max Temperature 95 °F 97 °F 105 °F (1977)
Min Temperature 76 °F 75 °F 65 °F (1989)
Degree Days  
Heating Degree Days 0 0  
Month to date heating degree days 0  
Since 1 June heating degree days 0  
Since 1 July heating degree days 0  
Cooling Degree Days 20 21  
Month to date cooling degree days 479  
Year to date cooling degree days 1419  
Since 1 June cooling degree days 967  
Growing Degree Days 36 (Base 50)    
Moisture  
Dew Point 70 °F    
Average Humidity 62    
Maximum Humidity 90    
Minimum Humidity 41    
Precipitation  
Precipitation 0.00 in 0.05 in 2.74 in (1971)
Month to date precipitation 1.39  
Year to date precipitation 19.71  
Sea Level Pressure  
Sea Level Pressure 29.97 in    
Wind  
Wind Speed 8 mph (SSE)    
Max Wind Speed 14 mph    
Max Gust Speed 17 mph    
Visibility 10 miles    
Events      
T = Trace of Precipitation, MM = Missing Value Source: NWS Daily Summary

Daily Weather History Graph

Daily Weather History Graph

Search for Another Location

Airport:

Trip Planner

Search our weather history database for the weather conditions in past years. The results will help you decide how hot, cold, wet, or windy it might be!

Date:

Astronomy

Jul. 24, 2013 Rise Set
Actual Time 6:43 AM CDT 8:34 PM CDT
Civil Twilight 6:16 AM CDT 9:01 PM CDT
Nautical Twilight 5:44 AM CDT 9:33 PM CDT
Astronomical Twilight 5:09 AM CDT 10:08 PM CDT
Moon 9:55 PM CDT (7/24) 8:53 AM CDT (7/24)
Length of Visible Light 14h 44m
Length of Day
13h 50m
Waning Gibbous, 94% of the Moon is Illuminated
Jul 24
Waning Gibbous
Jul 29
Last Quarter
Aug 6
New
Aug 14
First Quarter
Aug 20
Full

Hourly Weather History & Observations

Time (CDT) Temp. Heat Index Dew Point Humidity Pressure Visibility Wind Dir Wind Speed Gust Speed Precip Events Conditions
12:15 AM 80.1 °F 81.7 °F 64.0 °F 58% 29.92 in 10.0 mi North - - N/A   Clear
12:35 AM 80.6 °F 82.2 °F 64.0 °F 57% 29.94 in 10.0 mi North - - N/A   Clear
12:55 AM 80.6 °F 82.3 °F 64.4 °F 58% 29.94 in 10.0 mi South 9.2 mph - N/A   Clear
1:15 AM 81.0 °F 82.6 °F 64.6 °F 57% 29.93 in 10.0 mi South 10.4 mph - N/A   Clear
1:35 AM 80.6 °F 82.5 °F 65.7 °F 60% 29.94 in 10.0 mi South 10.4 mph - N/A   Clear
1:55 AM 80.6 °F 82.9 °F 67.1 °F 63% 29.94 in 10.0 mi South 10.4 mph - N/A   Clear
2:15 AM 80.1 °F 82.7 °F 68.2 °F 67% 29.94 in 10.0 mi South 9.2 mph - N/A   Clear
2:35 AM 79.7 °F - 68.9 °F 69% 29.95 in 10.0 mi South 8.1 mph - N/A   Clear
2:55 AM 79.3 °F - 69.3 °F 71% 29.94 in 10.0 mi SSW 10.4 mph - N/A   Clear
3:15 AM 78.8 °F - 69.8 °F 74% 29.94 in 10.0 mi South 10.4 mph - N/A   Clear
3:35 AM 78.8 °F - 70.7 °F 76% 29.95 in 10.0 mi SSW 11.5 mph - N/A   Clear
3:55 AM 78.4 °F - 71.1 °F 78% 29.94 in 10.0 mi SSW 9.2 mph - N/A   Clear
4:15 AM 78.3 °F - 71.6 °F 80% 29.94 in 10.0 mi SSW 9.2 mph - N/A   Clear
4:35 AM 78.1 °F - 71.6 °F 80% 29.94 in 10.0 mi SSW 9.2 mph - N/A   Clear
4:55 AM 77.9 °F - 71.6 °F 81% 29.94 in 10.0 mi SSW 10.4 mph - N/A   Clear
5:15 AM 77.9 °F - 71.8 °F 81% 29.95 in 10.0 mi South 10.4 mph - N/A   Clear
5:35 AM 77.4 °F - 71.6 °F 82% 29.97 in 10.0 mi South 9.2 mph - N/A   Clear
5:55 AM 77.0 °F - 71.6 °F 83% 29.97 in 10.0 mi South 8.1 mph - N/A   Clear
6:15 AM 76.6 °F - 72.0 °F 85% 29.98 in 10.0 mi South 9.2 mph - N/A   Clear
6:35 AM 76.5 °F - 72.1 °F 86% 29.97 in 10.0 mi South 10.4 mph - N/A   Clear
6:55 AM 76.3 °F - 72.5 °F 88% 29.98 in 10.0 mi South 9.2 mph - N/A   Clear
7:15 AM 76.1 °F - 72.9 °F 90% 29.98 in 10.0 mi South 9.2 mph - N/A   Clear
7:35 AM 76.3 °F - 72.9 °F 89% 29.97 in 10.0 mi South 9.2 mph - N/A   Clear
7:55 AM 77.0 °F - 72.5 °F 86% 29.97 in 10.0 mi South 11.5 mph - N/A   Clear
8:15 AM 77.9 °F - 72.1 °F 82% 29.97 in 10.0 mi SSW 13.8 mph 17.3 mph N/A   Clear
8:35 AM 79.5 °F - 71.8 °F 77% 29.99 in 10.0 mi SSW 11.5 mph - N/A   Clear
8:55 AM 80.6 °F 84.4 °F 71.1 °F 73% 29.99 in 10.0 mi SSW 12.7 mph 17.3 mph N/A   Clear
9:15 AM 81.9 °F 86.2 °F 71.1 °F 70% 30.00 in 10.0 mi SSW 9.2 mph - N/A   Clear
9:35 AM 83.3 °F 87.9 °F 71.1 °F 66% 30.01 in 10.0 mi SW 8.1 mph - N/A   Clear
9:55 AM 84.2 °F 89.0 °F 70.7 °F 64% 30.02 in 10.0 mi SW 8.1 mph - N/A   Clear
10:15 AM 85.3 °F 90.4 °F 70.9 °F 62% 30.02 in 10.0 mi SSW 6.9 mph - N/A   Clear
10:35 AM 86.9 °F 92.5 °F 70.9 °F 59% 30.02 in 10.0 mi SSW 4.6 mph - N/A   Clear
10:55 AM 88.0 °F 93.4 °F 70.7 °F 56% 30.04 in 10.0 mi SSE 3.5 mph - N/A   Clear
11:15 AM 87.8 °F 93.4 °F 70.9 °F 57% 30.05 in 10.0 mi North 4.6 mph - N/A   Mostly Cloudy
11:35 AM 88.2 °F 93.7 °F 70.7 °F 56% 30.05 in 10.0 mi NE 8.1 mph - N/A   Mostly Cloudy
11:55 AM 88.3 °F 94.1 °F 70.9 °F 56% 30.04 in 10.0 mi NE 4.6 mph 9.2 mph N/A   Mostly Cloudy
12:15 PM 88.9 °F 94.7 °F 70.9 °F 55% 30.03 in 10.0 mi East 5.8 mph - N/A   Clear
12:35 PM 90.0 °F 96.4 °F 71.4 °F 54% 30.03 in 10.0 mi ESE 6.9 mph - N/A   Clear
12:55 PM 90.3 °F 96.7 °F 70.9 °F 53% 30.02 in 10.0 mi ESE 5.8 mph - N/A   Scattered Clouds
1:15 PM 91.2 °F 97.5 °F 70.7 °F 51% 30.01 in 10.0 mi SSE 5.8 mph - N/A   Scattered Clouds
1:35 PM 91.0 °F 96.1 °F 69.6 °F 49% 30.01 in 10.0 mi Calm Calm - N/A   Scattered Clouds
1:55 PM 91.9 °F 97.9 °F 70.2 °F 49% 30.00 in 10.0 mi SE 6.9 mph - N/A   Scattered Clouds
2:15 PM 92.1 °F 97.7 °F 69.8 °F 48% 29.99 in 10.0 mi SSW 5.8 mph - N/A   Scattered Clouds
2:35 PM 93.0 °F 98.4 °F 69.6 °F 46% 29.98 in 10.0 mi SSW 5.8 mph - N/A   Scattered Clouds
2:55 PM 93.7 °F 98.8 °F 68.9 °F 44% 29.97 in 10.0 mi SE 4.6 mph - N/A   Clear
3:15 PM 93.7 °F 98.2 °F 68.0 °F 43% 29.97 in 10.0 mi Calm Calm - N/A   Clear
3:35 PM 94.1 °F 98.9 °F 68.4 °F 43% 29.95 in 10.0 mi SSE 3.5 mph - N/A   Clear
3:55 PM 94.6 °F 100.0 °F 69.1 °F 43% 29.95 in 10.0 mi ESE 9.2 mph - N/A   Scattered Clouds
4:15 PM 95.7 °F 100.9 °F 68.5 °F 41% 29.95 in 10.0 mi SSE 5.8 mph - N/A   Scattered Clouds
4:35 PM 95.4 °F 101.4 °F 69.6 °F 43% 29.94 in 10.0 mi SE 8.1 mph - N/A   Scattered Clouds
4:55 PM 95.2 °F 100.5 °F 69.1 °F 42% 29.94 in 10.0 mi SE 4.6 mph - N/A   Clear
5:15 PM 95.0 °F 100.1 °F 68.9 °F 42% 29.93 in 10.0 mi East 6.9 mph - N/A   Scattered Clouds
5:35 PM 95.5 °F 101.2 °F 69.1 °F 42% 29.93 in 10.0 mi ESE 10.4 mph - N/A   Scattered Clouds
5:55 PM 94.8 °F 99.8 °F 68.5 °F 42% 29.94 in 10.0 mi East 6.9 mph - N/A   Scattered Clouds
6:15 PM 94.3 °F 99.3 °F 68.7 °F 43% 29.94 in 10.0 mi East 8.1 mph - N/A   Clear
6:35 PM 94.1 °F 98.9 °F 68.2 °F 43% 29.94 in 10.0 mi ESE 6.9 mph - N/A   Clear
6:55 PM 93.4 °F 98.1 °F 68.4 °F 44% 29.94 in 10.0 mi ESE 6.9 mph - N/A   Clear
7:15 PM 91.9 °F 96.4 °F 68.2 °F 46% 29.94 in 10.0 mi ESE 6.9 mph - N/A   Clear
7:35 PM 91.9 °F 97.4 °F 69.4 °F 48% 29.94 in 10.0 mi SE 6.9 mph - N/A   Clear
7:55 PM 91.0 °F 96.6 °F 69.8 °F 50% 29.94 in 10.0 mi SSE 8.1 mph - N/A   Clear
8:15 PM 89.8 °F 95.1 °F 69.8 °F 52% 29.94 in 10.0 mi SSE 6.9 mph - N/A   Clear
8:35 PM 88.0 °F 92.9 °F 70.2 °F 55% 29.95 in 10.0 mi SSE 5.8 mph - N/A   Clear
8:55 PM 86.5 °F 91.8 °F 70.7 °F 59% 29.95 in 10.0 mi SE 5.8 mph - N/A   Clear
9:15 PM 85.6 °F 90.4 °F 70.3 °F 60% 29.95 in 10.0 mi SSE 6.9 mph - N/A   Clear
9:35 PM 85.1 °F 89.8 °F 70.3 °F 61% 29.97 in 10.0 mi SE 8.1 mph - N/A   Clear
9:55 PM 85.1 °F 89.8 °F 70.3 °F 61% 29.97 in 10.0 mi SE 9.2 mph - N/A   Clear
10:15 PM 85.1 °F 90.1 °F 70.7 °F 62% 29.98 in 10.0 mi SSE 8.1 mph - N/A   Clear
10:35 PM 84.0 °F 88.7 °F 70.7 °F 64% 29.99 in 10.0 mi SSE 6.9 mph - N/A   Clear
10:55 PM 82.4 °F 86.7 °F 70.9 °F 68% 29.99 in 10.0 mi SSE 4.6 mph - N/A   Clear
11:15 PM 81.0 °F 85.1 °F 71.6 °F 73% 29.99 in 10.0 mi South 4.6 mph - N/A   Clear
11:35 PM 80.6 °F 84.4 °F 71.2 °F 73% 30.00 in 10.0 mi South 4.6 mph - N/A   Clear
11:55 PM 80.2 °F 84.0 °F 71.6 °F 75% 30.00 in 10.0 mi SSE 4.6 mph - N/A   Clear